Regional Weather Roundup
Issued by NWS

Home | Current Version | Previous Version | Graphics & Text | Print | Product List | Glossary On
Versions: 1 2 3 4 5 6 7 8 9 10 11 12 13 14 15 16 17 18 19 20 21 22 23 24 25 26 27 28 29 30 31 32 33 34 35 36 37 38 39 40 41 42 43 44 45 46 47 48 49 50
000
ASUS45 KTFX 260010
RWRMT
MONTANA REGIONAL WEATHER ROUNDUP
NATIONAL WEATHER SERVICE GREAT FALLS MT
600 PM MDT MON JUL 25 2016

NOTE: "FAIR" INDICATES FEW OR NO CLOUDS BELOW 12000 FEET WITH NO
SIGNIFICANT WEATHER AND/OR OBSTRUCTIONS TO VISIBILITY.

MTZ001>007-043-260100-
WEST OF THE DIVIDE

CITY           SKY/WX    TMP DP  RH WIND       PRES   REMARKS
KALISPELL      SUNNY     88  48  25 E10       30.00F
MISSOULA       MOSUNNY   91  45  20 VRB3      30.00S
BUTTE          CLOUDY    80  39  23 NW18G24   30.15R
MULLAN PASS    SUNNY     74  43  32 SW6       30.22F
ANACONDA         N/A     66  54  63 NW7       30.11F
DEER LODGE       N/A     79  46  31 SE20G32   30.11R
EUREKA           N/A     91  43  18 N5        29.97F
HAMILTON         N/A     90  34  13 CALM      30.02F
LIBBY            N/A     91  45  19 W6        29.97F
PLAINS           N/A     96  47  18 CALM      29.97  HX  92
RONAN            N/A     88  48  24 N5        30.06F
$$

MTZ008-052>055-260100-
SOUTHWEST MONTANA

CITY           SKY/WX    TMP DP  RH WIND       PRES   REMARKS
BOZEMAN        CLOUDY    84  43  23 NW6       30.04S
DILLON         CLOUDY    79  46  31 NW10      30.08R
W YELLOWSTONE  SUNNY     84  16   8 W7G17     30.22S
ENNIS          SUNNY     86  32  14 VRB3      30.14S
$$

MTZ009-010-012-014-046-048-049-054-260100-
EAST SLOPES AND CENTRAL MONTANA

CITY           SKY/WX    TMP DP  RH WIND       PRES   REMARKS
CUT BANK         N/A     82  49  31 N8G16     30.08F
GREAT FALLS    SUNNY     89  41  18 VRB6      30.03F
MALMSTROM AFB  SUNNY     87  43  21 NW7       30.03S
HELENA         CLOUDY    90  41  18 N8        30.00S
CHOTEAU          N/A     84  46  26 N10       30.09F
CONRAD           N/A     86  54  33 NW10      30.09F
$$

MTZ011-013-016-021-045-047-050-051-260100-
NORTH CENTRAL MONTANA

CITY           SKY/WX    TMP DP  RH WIND       PRES   REMARKS
HAVRE            N/A     91  47  21 N6        29.97S
LEWISTOWN      SUNNY     85  50  29 N8        30.08F
N BAR RANCH      N/A     84  46  26 N8        30.10F
CHINOOK          N/A     93  48  21 CALM      29.96F HX  90
$$

MTZ017>020-022>027-061-062-260100-
NORTHEAST MONTANA

CITY           SKY/WX    TMP DP  RH WIND       PRES   REMARKS
GLASGOW        SUNNY     91  54  28 NE6       29.95F
JORDAN           N/A     94  44  17 NE14      29.95S HX  90
SIDNEY         SUNNY     90  54  29 NE12      29.95S
WOLF POINT     SUNNY     94  49  21 E5        29.95S HX  90
PLENTYWOOD       N/A     88  52  29 NW5       29.98S
POPLAR           N/A     90  50  25 NE5       29.96S
SCOBEY           N/A     87  54  32 NE5       29.99
$$

MTZ028>42-056>058-260100-
SOUTHCENTRAL AND SOUTHEAST MONTANA

CITY           SKY/WX    TMP DP  RH WIND       PRES   REMARKS
BAKER          SUNNY     94  47  20 NE10      29.97S HX  90
BILLINGS       MOSUNNY   95  33  11 E13       29.96F HX  90
LIVINGSTON     SUNNY     95  33  11 NW12      30.02S HX  90
MILES CITY     SUNNY     98  39  13 VRB7      29.92S HX  93
FORSYTH          N/A     99  39  12 CALM      29.92F HX  94
LAUREL           N/A     96  41  15 NE8       29.96F HX  91
ROUNDUP          N/A     90  45  21 N12       29.92F
$$

REGIONAL REPORTS...DAKOTAS

CITY           SKY/WX    TMP DP  RH WIND       PRES   REMARKS
WILLISTON      SUNNY     90  52  27 N10       29.97R
MINOT          SUNNY     88  66  48 N9        29.94S HX  90
DICKINSON      SUNNY     91  47  21 N7        29.94S
BEACH            N/A     88  55  33 NE9       30.00S
CROSBY           N/A     82  61  47 SE3       29.99F
WATFORD CITY     N/A    N/A N/A N/A MISG        N/A
BISMARCK       SUNNY     93  64  38 CALM      29.91S HX  94
GRAND FORKS    MOSUNNY   89  67  47 S6        29.89F HX  92
FARGO          SUNNY     87  61  41 S10       29.92F
BUFFALO SD       N/A     88  51  28 E13       29.90R
RAPID CITY     CLOUDY    86  49  27 W8        29.99S
$$

REGIONAL REPORTS...WYOMING/IDAHO/WASHINGTON

CITY           SKY/WX    TMP DP  RH WIND       PRES   REMARKS
GILLETTE       SUNNY     93  32  11 E8        30.02S
SHERIDAN       SUNNY     97  34  11 NW8       29.98S HX  91
BUFFALO WY     SUNNY     94  32  11 N13       30.06S
CODY           SUNNY     88  37  16 NE9       30.06S
YELLOWSTONE LA   N/A     77  21  12 SW9       30.34S
IDAHO FALLS    SUNNY     93  29  10 S12G21    30.05F
SALMON         MOSUNNY   88  43  20 N5        29.98S
BOISE          SUNNY     99  29   8 N8        29.92F HX  93
SPOKANE        MOSUNNY   92  42  17 E3        29.98F
$$

REGIONAL REPORTS...ALBERTA

CITY           SKY/WX    TMP DP  RH WIND       PRES   REMARKS
EDMONTON       MOSUNNY   77  48  36 CALM      30.02F
CALGARY        PTSUNNY   73  55  53 SE10G17   30.07S THUNDER
LETHBRIDGE     MOSUNNY   81  57  44 E8        30.04F
MEDICINE HAT   MOSUNNY   82  57  42 NE8       30.02F
WATERTON GATE    N/A     79  54  41 E7          N/A
CARDSTON         N/A     81  50  34 NE3         N/A
ONEFOUR          N/A     82  50  32 NE14        N/A
$$

REGIONAL REPORTS...SASKATCHEWAN

CITY           SKY/WX    TMP DP  RH WIND       PRES   REMARKS
SWIFT CURRENT  MOSUNNY   75  59  57 NE9       30.06S
REGINA         MOSUNNY   79  61  53 N16       30.01R
SASKATOON      MOSUNNY   77  45  31 NW14      30.04S
CYPRESS HILLS    N/A     72  55  56 NE6         N/A
ROCKGLEN         N/A     79  54  41 N10         N/A
ASSINIBOIA       N/A     75  50  41 SW3         N/A
$$



USA.gov is the U.S. government's official web portal to all federal, state and local government web resources and services.